Tracking 18980 objects as of 20-Feb-2018
HD Live streaming from Space Station
objects crossing your sky now

ARIANE 5 R/B

Track ARIANE 5 R/B now!


NORAD ID: 39080
Int'l Code: 2013-006C
Perigee: 267.7 km
Apogee: 34,956.9 km
Inclination: 6.0 °
Period: 616.1 minutes
Semi major axis: 23983 km
RCS: 25.327 m2 (large)
Launch date: February 7, 2013
Source: France (FR)
Launch site: FRENCH GUIANA (FRGUI)

Note: This is a ROCKET BODY
aabbcc
Your satellite tracking list
Your tracking list is empty




NASA's NSSDC Master Catalog

Two Line Element Set (TLE):
1 39080U 13006C   18049.02054685  .00001578  00000-0  56079-3 0  9993
2 39080   6.0224 232.1164 7231961 266.4968  16.0722  2.33743460 42348
Source of the keplerian elements: AFSPC